Location: Larkspur
(54.4391°N, 113.7691°W)
Time: 23:23:56
(UTC+00:00)

LilacSat-2 - Visible Passes

Search period start: 06 December 2023 00:00
Search period end: 16 December 2023 00:00
Orbit: 490 x 506 km, 97.5° (Epoch: 06 December)

Date Brightness Start Highest point End Pass type
(mag) Time Alt. Az. Time Alt. Az. Time Alt. Az.
06 Dec ? 00:17:55 10° SE 00:21:29 50° ENE 00:25:05 10° N visible
06 Dec ? 01:52:50 10° SW 01:55:28 19° W 01:58:09 10° NW visible
06 Dec ? 13:13:56 10° NE 13:17:07 26° E 13:20:17 10° SSE visible
06 Dec ? 14:47:28 10° N 14:50:55 36° WNW 14:54:21 10° SW visible
06 Dec ? 23:58:10 10° SE 00:01:28 32° ENE 00:04:49 10° N visible
07 Dec ? 01:31:59 10° SSW 01:35:13 28° W 01:38:28 10° NNW visible
07 Dec ? 12:54:19 10° NE 12:56:50 17° E 12:59:21 10° SE visible
07 Dec ? 14:27:12 10° N 14:30:53 57° WNW 14:34:32 10° SSW visible
08 Dec ? 01:11:26 10° S 01:14:59 45° W 01:18:35 10° NNW visible
08 Dec ? 12:35:22 10° ENE 12:36:29 11° E 12:37:36 10° ESE visible
08 Dec ? 14:07:02 10° NNE 14:10:48 89° SE 14:14:31 10° SSW visible
09 Dec ? 00:51:08 10° S 00:54:49 74° WSW 00:58:32 10° NNW visible
09 Dec ? 13:46:57 10° NNE 13:50:38 55° E 13:54:17 10° S visible
10 Dec ? 00:31:01 10° SSE 00:34:40 68° ENE 00:38:23 10° N visible
10 Dec ? 02:06:47 10° WSW 02:08:50 14° W 02:10:54 10° NW visible
10 Dec ? 13:26:58 10° NNE 13:30:25 34° E 13:33:50 10° SSE visible
10 Dec ? 15:00:50 10° N 15:04:02 28° WNW 15:07:15 10° WSW visible
11 Dec ? 00:11:05 10° SE 00:14:35 42° ENE 00:18:07 10° N visible
11 Dec ? 01:45:34 10° SW 01:48:29 22° W 01:51:25 10° NW visible
11 Dec ? 13:07:07 10° NE 13:10:07 22° E 13:13:05 10° SE visible
11 Dec ? 14:40:27 10° N 14:44:00 42° WNW 14:47:32 10° SW visible
11 Dec ? 23:51:21 10° ESE 23:54:32 28° ENE 23:57:45 10° N visible
12 Dec ? 01:24:48 10° SSW 01:28:11 33° W 01:31:36 10° NNW visible
12 Dec ? 12:47:36 10° NE 12:49:45 15° E 12:51:54 10° SE visible
12 Dec ? 14:20:10 10° N 14:23:54 67° WNW 14:27:35 10° SSW visible
13 Dec ? 01:04:18 10° S 01:07:55 54° W 01:11:35 10° NNW visible
13 Dec ? 13:59:58 10° NNE 14:03:43 76° ESE 14:07:26 10° S visible
14 Dec ? 00:44:01 10° SSE 00:47:42 88° WSW 00:51:27 10° NNW visible
14 Dec ? 02:21:04 10° W 02:22:02 11° W 02:23:00 10° WNW visible
14 Dec ? 13:39:52 10° NNE 13:43:29 46° E 13:47:04 10° S visible
15 Dec ? 00:23:54 10° SSE 00:27:32 57° ENE 00:31:12 10° N visible
15 Dec ? 01:59:08 10° SW 02:01:35 17° W 02:04:04 10° NW visible
15 Dec ? 13:19:52 10° NNE 13:23:11 29° E 13:26:27 10° SSE visible
15 Dec ? 14:53:33 10° N 14:56:54 32° WNW 15:00:14 10° SW visible
